Home > Weather > Sunnyvale > Past weeks

Flag for USA Weather for the Past 2 Weeks in Sunnyvale, California, USA

Now
70 °F

Sunny.


Feels Like: 76 °F
Forecast: 54 / 75 °F
Wind: 15 mph from North

Location: Moffett Field

Current Time: May 2, 2016 at 3:19:15 PM

Latest Report: May 2, 2016 at 2:56 PM


Visibility: 10 mi

Pressure: 30.02 "Hg

Humidity: 59%

Dew Point: 55 °F

Location of SunnyvaleLocation

Historic Weather in Sunnyvale — Graph

°F

Sunnyvale Temperature Yesterday

Maximum temperature yesterday: 83 °F (at 2:56 PM)
Minimum temperature yesterday: 56 °F (at 6:56 AM)
Average temperature yesterday: 68 °F

High & Low Weather Summary for the Past Weeks

 TemperatureHumidityPressure
High86 °F (Apr 18, 2:56 PM)87% (Apr 22, 6:56 AM)30.22 "Hg (Apr 22, 6:56 AM)
Low46 °F (Apr 26, 4:56 AM)19% (Apr 19, 1:56 PM)29.81 "Hg (May 1, 2:56 AM)
Average62 °F57%29.99 "Hg
* Reported Apr 17 1:56 PM — May 2 1:56 PM, Sunnyvale, Weather by CustomWeather, © 2016

Note: Actual official high and low records may vary slightly from our data, if they occured in-between our weather recording intervals... More about our weather records

Advertising

Sunnyvale Weather History for the Previous 24 Hours

Scroll right to see more
 ConditionsComfort  
Time TempWeatherWind HumidityBarometerVisibility
1:56 PM
Mon, May 2
70 °FSunny.13 mph55%30.03 "Hg10 mi
12:56 PM69 °FSunny.8 mph57%30.05 "Hg10 mi
11:56 AM68 °FSunny.6 mph57%30.06 "Hg10 mi
10:56 AM65 °FSunny.8 mph63%30.07 "Hg10 mi
9:56 AM61 °FSunny.6 mph70%30.07 "Hg10 mi
8:56 AM60 °FPartly sunny.7 mph72%30.07 "Hg9 mi
7:56 AM58 °FOvercast.No wind72%30.06 "Hg10 mi
6:56 AM56 °FOvercast.3 mph72%30.04 "Hg10 mi
5:56 AM57 °FOvercast.3 mph81%30.01 "Hg10 mi
4:56 AM58 °FOvercast.No wind78%30.00 "Hg10 mi
3:56 AM58 °FOvercast.No wind84%29.99 "Hg9 mi
2:56 AM57 °FClear.No wind72%29.98 "Hg10 mi
1:56 AM58 °FClear.No wind84%29.98 "Hg9 mi
12:56 AM61 °FClear.No wind70%29.98 "Hg10 mi
11:56 PM
Sun, May 1
62 °FClear.5 mph65%29.97 "Hg10 mi
10:56 PM64 °FPassing clouds.3 mph58%29.96 "Hg10 mi
9:56 PM64 °FPassing clouds.7 mph61%29.94 "Hg10 mi
8:56 PM64 °FPassing clouds.7 mph63%29.92 "Hg10 mi
7:56 PM67 °FSunny.10 mph61%29.88 "Hg10 mi
6:56 PM72 °FSunny.14 mph55%29.84 "Hg10 mi
5:56 PM78 °FSunny.14 mph42%29.83 "Hg10 mi
4:56 PM82 °FSunny.13 mph28%29.83 "Hg10 mi
3:56 PM79 °FSunny.14 mph30%29.82 "Hg10 mi
Weather by CustomWeather, © 2016

See weather overviewHow to use our weather pages